Year,Month,Day,Hour,Minute,Value (Times are PST for temperature in C)
2012,09,18,00,00,16.70
2012,09,18,00,01,16.70
2012,09,18,00,02,16.60
2012,09,18,00,03,16.50
2012,09,18,00,04,16.40
2012,09,18,00,05,16.40
2012,09,18,00,06,16.40
2012,09,18,00,07,16.30
2012,09,18,00,08,16.20
2012,09,18,00,09,16.20
2012,09,18,00,10,16.10
2012,09,18,00,11,16.10
2012,09,18,00,12,16.00
2012,09,18,00,13,15.90
2012,09,18,00,14,15.90
2012,09,18,00,15,15.80
2012,09,18,00,16,15.80
2012,09,18,00,17,15.70
2012,09,18,00,18,15.70
2012,09,18,00,19,15.60
2012,09,18,00,20,15.60
2012,09,18,00,21,15.50
2012,09,18,00,22,15.50
2012,09,18,00,23,15.50
2012,09,18,00,24,15.40
2012,09,18,00,25,15.40
2012,09,18,00,26,15.30
2012,09,18,00,27,15.30
2012,09,18,00,28,15.30
2012,09,18,00,29,15.30
2012,09,18,00,30,15.30
2012,09,18,00,31,15.20
2012,09,18,00,32,15.20
2012,09,18,00,33,15.10
2012,09,18,00,34,15.10
2012,09,18,00,35,15.10
2012,09,18,00,36,15.10
2012,09,18,00,37,15.00
2012,09,18,00,38,15.00
2012,09,18,00,39,15.00
2012,09,18,00,40,15.00
2012,09,18,00,41,15.00
2012,09,18,00,42,15.00
2012,09,18,00,43,15.00
2012,09,18,00,44,15.00
2012,09,18,00,45,15.00
2012,09,18,00,46,15.00
2012,09,18,00,47,15.00
2012,09,18,00,48,15.00
2012,09,18,00,49,15.00
2012,09,18,00,50,15.00
2012,09,18,00,51,15.00
2012,09,18,00,52,15.00
2012,09,18,00,53,15.00
2012,09,18,00,54,15.00
2012,09,18,00,55,15.00
2012,09,18,00,56,15.00
2012,09,18,00,57,15.00
2012,09,18,00,58,15.00
2012,09,18,00,59,15.10
2012,09,18,01,00,15.10
2012,09,18,01,01,15.10
2012,09,18,01,02,15.20
2012,09,18,01,03,15.20
2012,09,18,01,04,15.30
2012,09,18,01,05,15.30
2012,09,18,01,06,15.40
2012,09,18,01,07,15.50
2012,09,18,01,08,15.50
2012,09,18,01,09,15.60
2012,09,18,01,10,15.60
2012,09,18,01,11,15.70
2012,09,18,01,12,15.80
2012,09,18,01,13,15.80
2012,09,18,01,14,15.80
2012,09,18,01,15,15.90
2012,09,18,01,16,15.90
2012,09,18,01,17,16.00
2012,09,18,01,18,16.10
2012,09,18,01,19,16.10
2012,09,18,01,20,16.10
2012,09,18,01,21,16.10
2012,09,18,01,22,16.20
2012,09,18,01,23,16.20
2012,09,18,01,24,16.20
2012,09,18,01,25,16.20
2012,09,18,01,26,16.20
2012,09,18,01,27,16.20
2012,09,18,01,28,16.20
2012,09,18,01,29,16.20
2012,09,18,01,30,16.20
2012,09,18,01,31,16.10
2012,09,18,01,32,16.10
2012,09,18,01,33,16.10
2012,09,18,01,34,16.10
2012,09,18,01,35,16.10
2012,09,18,01,36,16.00
2012,09,18,01,37,15.90
2012,09,18,01,38,15.90
2012,09,18,01,39,15.80
2012,09,18,01,40,15.80
2012,09,18,01,41,15.80
2012,09,18,01,42,15.80
2012,09,18,01,43,15.70
2012,09,18,01,44,15.70
2012,09,18,01,45,15.70
2012,09,18,01,46,15.60
2012,09,18,01,47,15.60
2012,09,18,01,48,15.60
2012,09,18,01,49,15.50
2012,09,18,01,50,15.50
2012,09,18,01,51,15.50
2012,09,18,01,52,15.50
2012,09,18,01,53,15.50
2012,09,18,01,54,15.50
2012,09,18,01,55,15.50
2012,09,18,01,56,15.50
2012,09,18,01,57,15.50
2012,09,18,01,58,15.50
2012,09,18,01,59,15.50
2012,09,18,02,00,15.50
2012,09,18,02,01,15.50
2012,09,18,02,02,15.60
2012,09,18,02,03,15.60
2012,09,18,02,04,15.60
2012,09,18,02,05,15.60
2012,09,18,02,06,15.60
2012,09,18,02,07,15.60
2012,09,18,02,08,15.60
2012,09,18,02,09,15.60
2012,09,18,02,10,15.60
2012,09,18,02,11,15.60
2012,09,18,02,12,15.70
2012,09,18,02,13,15.70
2012,09,18,02,14,15.70
2012,09,18,02,15,15.80
2012,09,18,02,16,15.80
2012,09,18,02,17,15.80
2012,09,18,02,18,15.80
2012,09,18,02,19,15.90
2012,09,18,02,20,15.90
2012,09,18,02,21,15.90
2012,09,18,02,22,15.90
2012,09,18,02,23,15.90
2012,09,18,02,24,15.90
2012,09,18,02,25,15.90
2012,09,18,02,26,15.90
2012,09,18,02,27,15.80
2012,09,18,02,28,15.80
2012,09,18,02,29,15.80
2012,09,18,02,30,15.80
2012,09,18,02,31,15.70
2012,09,18,02,32,15.70
2012,09,18,02,33,15.60
2012,09,18,02,34,15.50
2012,09,18,02,35,15.50
2012,09,18,02,36,15.40
2012,09,18,02,37,15.40
2012,09,18,02,38,15.30
2012,09,18,02,39,15.30
2012,09,18,02,40,15.30
2012,09,18,02,41,15.30
2012,09,18,02,42,15.20
2012,09,18,02,43,15.20
2012,09,18,02,44,15.20
2012,09,18,02,45,15.10
2012,09,18,02,46,15.10
2012,09,18,02,47,15.10
2012,09,18,02,48,15.10
2012,09,18,02,49,15.00
2012,09,18,02,50,15.00
2012,09,18,02,51,15.00
2012,09,18,02,52,15.00
2012,09,18,02,53,15.00
2012,09,18,02,54,15.00
2012,09,18,02,55,15.00
2012,09,18,02,56,15.00
2012,09,18,02,57,14.90
2012,09,18,02,58,14.90
2012,09,18,02,59,14.90
2012,09,18,03,00,14.90
2012,09,18,03,01,14.80
2012,09,18,03,02,14.80
2012,09,18,03,03,14.80
2012,09,18,03,04,14.80
2012,09,18,03,05,14.80
2012,09,18,03,06,14.70
2012,09,18,03,07,14.70
2012,09,18,03,08,14.60
2012,09,18,03,09,14.60
2012,09,18,03,10,14.60
2012,09,18,03,11,14.50
2012,09,18,03,12,14.50
2012,09,18,03,13,14.50
2012,09,18,03,14,14.50
2012,09,18,03,15,14.50
2012,09,18,03,16,14.50
2012,09,18,03,17,14.50
2012,09,18,03,18,14.50
2012,09,18,03,19,14.40
2012,09,18,03,20,14.50
2012,09,18,03,21,14.50
2012,09,18,03,22,14.50
2012,09,18,03,23,14.50
2012,09,18,03,24,14.50
2012,09,18,03,25,14.60
2012,09,18,03,26,14.60
2012,09,18,03,27,14.60
2012,09,18,03,28,14.50
2012,09,18,03,29,14.50
2012,09,18,03,30,14.50
2012,09,18,03,31,14.50
2012,09,18,03,32,14.40
2012,09,18,03,33,14.40
2012,09,18,03,34,14.40
2012,09,18,03,35,14.40
2012,09,18,03,36,14.30
2012,09,18,03,37,14.30
2012,09,18,03,38,14.30
2012,09,18,03,39,14.20
2012,09,18,03,40,14.20
2012,09,18,03,41,14.20
2012,09,18,03,42,14.20
2012,09,18,03,43,14.20
2012,09,18,03,44,14.20
2012,09,18,03,45,14.10
2012,09,18,03,46,14.10
2012,09,18,03,47,14.10
2012,09,18,03,48,14.10
2012,09,18,03,49,14.10
2012,09,18,03,50,14.00
2012,09,18,03,51,14.00
2012,09,18,03,52,14.00
2012,09,18,03,53,14.00
2012,09,18,03,54,13.90
2012,09,18,03,55,13.90
2012,09,18,03,56,13.90
2012,09,18,03,57,13.90
2012,09,18,03,58,14.00
2012,09,18,03,59,14.00
2012,09,18,04,00,14.00
2012,09,18,04,01,14.10
2012,09,18,04,02,14.10
2012,09,18,04,03,14.20
2012,09,18,04,04,14.20
2012,09,18,04,05,14.40
2012,09,18,04,06,14.40
2012,09,18,04,07,14.50
2012,09,18,04,08,14.50
2012,09,18,04,09,14.60
2012,09,18,04,10,14.60
2012,09,18,04,11,14.60
2012,09,18,04,12,14.60
2012,09,18,04,13,14.60
2012,09,18,04,14,14.70
2012,09,18,04,15,14.70
2012,09,18,04,16,14.70
2012,09,18,04,17,14.70
2012,09,18,04,18,14.70
2012,09,18,04,19,14.70
2012,09,18,04,20,14.70
2012,09,18,04,21,14.70
2012,09,18,04,22,14.80
2012,09,18,04,23,14.80
2012,09,18,04,24,14.80
2012,09,18,04,25,14.80
2012,09,18,04,26,14.80
2012,09,18,04,27,14.80
2012,09,18,04,28,14.80
2012,09,18,04,29,14.80
2012,09,18,04,30,14.80
2012,09,18,04,31,14.80
2012,09,18,04,32,14.80
2012,09,18,04,33,14.80
2012,09,18,04,34,14.70
2012,09,18,04,35,14.60
2012,09,18,04,36,14.60
2012,09,18,04,37,14.50
2012,09,18,04,38,14.50
2012,09,18,04,39,14.40
2012,09,18,04,40,14.40
2012,09,18,04,41,14.30
2012,09,18,04,42,14.30
2012,09,18,04,43,14.20
2012,09,18,04,44,14.20
2012,09,18,04,45,14.20
2012,09,18,04,46,14.20
2012,09,18,04,47,14.10
2012,09,18,04,48,14.10
2012,09,18,04,49,14.10
2012,09,18,04,50,14.00
2012,09,18,04,51,14.00
2012,09,18,04,52,14.00
2012,09,18,04,53,13.90
2012,09,18,04,54,13.90
2012,09,18,04,55,13.90
2012,09,18,04,56,13.90
2012,09,18,04,57,13.90
2012,09,18,04,58,13.90
2012,09,18,04,59,14.00
2012,09,18,05,00,14.00
2012,09,18,05,01,14.10
2012,09,18,05,02,14.20
2012,09,18,05,03,14.40
2012,09,18,05,04,14.50
2012,09,18,05,05,14.60
2012,09,18,05,06,14.70
2012,09,18,05,07,14.80
2012,09,18,05,08,14.80
2012,09,18,05,09,14.90
2012,09,18,05,10,15.00
2012,09,18,05,11,15.10
2012,09,18,05,12,15.20
2012,09,18,05,13,15.30
2012,09,18,05,14,15.40
2012,09,18,05,15,15.50
2012,09,18,05,16,15.60
2012,09,18,05,17,15.70
2012,09,18,05,18,15.80
2012,09,18,05,19,15.80
2012,09,18,05,20,15.90
2012,09,18,05,21,15.90
2012,09,18,05,22,16.00
2012,09,18,05,23,16.00
2012,09,18,05,24,15.90
2012,09,18,05,25,15.90
2012,09,18,05,26,15.90
2012,09,18,05,27,15.90
2012,09,18,05,28,15.90
2012,09,18,05,29,15.90
2012,09,18,05,30,15.90
2012,09,18,05,31,15.90
2012,09,18,05,32,15.80
2012,09,18,05,33,15.80
2012,09,18,05,34,15.80
2012,09,18,05,35,15.80
2012,09,18,05,36,15.80
2012,09,18,05,37,15.80
2012,09,18,05,38,15.80
2012,09,18,05,39,15.70
2012,09,18,05,40,15.70
2012,09,18,05,41,15.60
2012,09,18,05,42,15.60
2012,09,18,05,43,15.60
2012,09,18,05,44,15.50
2012,09,18,05,45,15.50
2012,09,18,05,46,15.40
2012,09,18,05,47,15.40
2012,09,18,05,48,15.30
2012,09,18,05,49,15.30
2012,09,18,05,50,15.30
2012,09,18,05,51,15.20
2012,09,18,05,52,15.20
2012,09,18,05,53,15.10
2012,09,18,05,54,15.10
2012,09,18,05,55,15.10
2012,09,18,05,56,15.00
2012,09,18,05,57,15.00
2012,09,18,05,58,14.90
2012,09,18,05,59,14.90
2012,09,18,06,00,14.80
2012,09,18,06,01,14.80
2012,09,18,06,02,14.70
2012,09,18,06,03,14.70
2012,09,18,06,04,14.60
2012,09,18,06,05,14.60
2012,09,18,06,06,14.50
2012,09,18,06,07,14.50
2012,09,18,06,08,14.40
2012,09,18,06,09,14.30
2012,09,18,06,10,14.30
2012,09,18,06,11,14.20
2012,09,18,06,12,14.20
2012,09,18,06,13,14.20
2012,09,18,06,14,14.20
2012,09,18,06,15,14.20
2012,09,18,06,16,14.20
2012,09,18,06,17,14.10
2012,09,18,06,18,14.10
2012,09,18,06,19,14.10
2012,09,18,06,20,14.10
2012,09,18,06,21,14.10
2012,09,18,06,22,14.10
2012,09,18,06,23,14.10
2012,09,18,06,24,14.00
2012,09,18,06,25,14.00
2012,09,18,06,26,14.00
2012,09,18,06,27,14.00
2012,09,18,06,28,14.00
2012,09,18,06,29,14.00
2012,09,18,06,30,14.00
2012,09,18,06,31,14.00
2012,09,18,06,32,14.00
2012,09,18,06,33,14.00
2012,09,18,06,34,14.00
2012,09,18,06,35,14.00
2012,09,18,06,36,14.10
2012,09,18,06,37,14.10
2012,09,18,06,38,14.10
2012,09,18,06,39,14.10
2012,09,18,06,40,14.10
2012,09,18,06,41,14.00
2012,09,18,06,42,14.00
2012,09,18,06,43,14.00
2012,09,18,06,44,14.00
2012,09,18,06,45,14.00
2012,09,18,06,46,14.00
2012,09,18,06,47,14.00
2012,09,18,06,48,14.00
2012,09,18,06,49,14.00
2012,09,18,06,50,14.00
2012,09,18,06,51,14.00
2012,09,18,06,52,14.00
2012,09,18,06,53,14.00
2012,09,18,06,54,14.00
2012,09,18,06,55,14.00
2012,09,18,06,56,14.00
2012,09,18,06,57,14.00
2012,09,18,06,58,14.10
2012,09,18,06,59,14.10
2012,09,18,07,00,14.10
2012,09,18,07,01,14.10
2012,09,18,07,02,14.10
2012,09,18,07,03,14.20
2012,09,18,07,04,14.20
2012,09,18,07,05,14.20
2012,09,18,07,06,14.20
2012,09,18,07,07,14.20
2012,09,18,07,08,14.20
2012,09,18,07,09,14.20
2012,09,18,07,10,14.20
2012,09,18,07,11,14.20
2012,09,18,07,12,14.20
2012,09,18,07,13,14.20
2012,09,18,07,14,14.20
2012,09,18,07,15,14.20
2012,09,18,07,16,14.20
2012,09,18,07,17,14.20
2012,09,18,07,18,14.20
2012,09,18,07,19,14.20
2012,09,18,07,20,14.20
2012,09,18,07,21,14.20
2012,09,18,07,22,14.30
2012,09,18,07,23,14.30
2012,09,18,07,24,14.30
2012,09,18,07,25,14.30
2012,09,18,07,26,14.30
2012,09,18,07,27,14.30
2012,09,18,07,28,14.40
2012,09,18,07,29,14.40
2012,09,18,07,30,14.40
2012,09,18,07,31,14.40
2012,09,18,07,32,14.40
2012,09,18,07,33,14.40
2012,09,18,07,34,14.40
2012,09,18,07,35,14.50
2012,09,18,07,36,14.50
2012,09,18,07,37,14.50
2012,09,18,07,38,14.60
2012,09,18,07,39,14.60
2012,09,18,07,40,14.60
2012,09,18,07,41,14.60
2012,09,18,07,42,14.60
2012,09,18,07,43,14.70
2012,09,18,07,44,14.70
2012,09,18,07,45,14.70
2012,09,18,07,46,14.80
2012,09,18,07,47,14.80
2012,09,18,07,48,14.80
2012,09,18,07,49,14.80
2012,09,18,07,50,14.80
2012,09,18,07,51,14.90
2012,09,18,07,52,14.90
2012,09,18,07,53,15.00
2012,09,18,07,54,15.00
2012,09,18,07,55,15.10
2012,09,18,07,56,15.10
2012,09,18,07,57,15.20
2012,09,18,07,58,15.20
2012,09,18,07,59,15.30
2012,09,18,08,00,15.30
2012,09,18,08,01,15.40
2012,09,18,08,02,15.50
2012,09,18,08,03,15.50
2012,09,18,08,04,15.60
2012,09,18,08,05,15.70
2012,09,18,08,06,15.70
2012,09,18,08,07,15.80
2012,09,18,08,08,15.80
2012,09,18,08,09,15.90
2012,09,18,08,10,16.00
2012,09,18,08,11,16.10
2012,09,18,08,12,16.10
2012,09,18,08,13,16.10
2012,09,18,08,14,16.10
2012,09,18,08,15,16.10
2012,09,18,08,16,16.10
2012,09,18,08,17,16.10
2012,09,18,08,18,16.10
2012,09,18,08,19,16.10
2012,09,18,08,20,16.10
2012,09,18,08,21,16.10
2012,09,18,08,22,16.10
2012,09,18,08,23,16.10
2012,09,18,08,24,16.10
2012,09,18,08,25,16.10
2012,09,18,08,26,16.10
2012,09,18,08,27,16.10
2012,09,18,08,28,16.10
2012,09,18,08,29,16.10
2012,09,18,08,30,16.00
2012,09,18,08,31,15.90
2012,09,18,08,32,15.90
2012,09,18,08,33,15.90
2012,09,18,08,34,15.90
2012,09,18,08,35,15.90
2012,09,18,08,36,15.90
2012,09,18,08,37,15.90
2012,09,18,08,38,15.90
2012,09,18,08,39,15.90
2012,09,18,08,40,15.90
2012,09,18,08,41,15.90
2012,09,18,08,42,15.90
2012,09,18,08,43,15.90
2012,09,18,08,44,15.90
2012,09,18,08,45,15.90
2012,09,18,08,46,15.90
2012,09,18,08,47,15.90
2012,09,18,08,48,15.90
2012,09,18,08,49,15.90
2012,09,18,08,50,15.90
2012,09,18,08,51,15.80
2012,09,18,08,52,15.80
2012,09,18,08,53,15.80
2012,09,18,08,54,15.80
2012,09,18,08,55,15.80
2012,09,18,08,56,15.80
2012,09,18,08,57,15.80
2012,09,18,08,58,15.80
2012,09,18,08,59,15.80
2012,09,18,09,00,15.80
2012,09,18,09,01,15.80
2012,09,18,09,02,15.80
2012,09,18,09,03,15.80
2012,09,18,09,04,15.80
2012,09,18,09,05,15.80
2012,09,18,09,06,15.80
2012,09,18,09,07,15.80
2012,09,18,09,08,15.80
2012,09,18,09,09,15.80
2012,09,18,09,10,15.80
2012,09,18,09,11,15.80
2012,09,18,09,12,15.80
2012,09,18,09,13,15.90
2012,09,18,09,14,15.90
2012,09,18,09,15,15.90
2012,09,18,09,16,15.90
2012,09,18,09,17,15.90
2012,09,18,09,18,15.90
2012,09,18,09,19,16.00
2012,09,18,09,20,16.10
2012,09,18,09,21,16.10
2012,09,18,09,22,16.10
2012,09,18,09,23,16.10
2012,09,18,09,24,16.20
2012,09,18,09,25,16.20
2012,09,18,09,26,16.30
2012,09,18,09,27,16.30
2012,09,18,09,28,16.30
2012,09,18,09,29,16.40
2012,09,18,09,30,16.40
2012,09,18,09,31,16.40
2012,09,18,09,32,16.40
2012,09,18,09,33,16.40
2012,09,18,09,34,16.40
2012,09,18,09,35,16.50
2012,09,18,09,36,16.60
2012,09,18,09,37,16.60
2012,09,18,09,38,16.60
2012,09,18,09,39,16.60
2012,09,18,09,40,16.60
2012,09,18,09,41,16.70
2012,09,18,09,42,16.70
2012,09,18,09,43,16.70
2012,09,18,09,44,16.70
2012,09,18,09,45,16.70
2012,09,18,09,46,16.70
2012,09,18,09,47,16.80
2012,09,18,09,48,16.80
2012,09,18,09,49,16.80
2012,09,18,09,50,16.80
2012,09,18,09,51,16.80
2012,09,18,09,52,16.80
2012,09,18,09,53,16.90
2012,09,18,09,54,16.90
2012,09,18,09,55,17.00
2012,09,18,09,56,17.00
2012,09,18,09,57,17.00
2012,09,18,09,58,17.10
2012,09,18,09,59,17.10
2012,09,18,10,00,17.20
2012,09,18,10,01,17.30
2012,09,18,10,02,17.30
2012,09,18,10,03,17.30
2012,09,18,10,04,17.40
2012,09,18,10,05,17.40
2012,09,18,10,06,17.40
2012,09,18,10,07,17.40
2012,09,18,10,08,17.40
2012,09,18,10,09,17.40
2012,09,18,10,10,17.50
2012,09,18,10,11,17.50
2012,09,18,10,12,17.40
2012,09,18,10,13,17.40
2012,09,18,10,14,17.40
2012,09,18,10,15,17.40
2012,09,18,10,16,17.50
2012,09,18,10,17,17.50
2012,09,18,10,18,17.50
2012,09,18,10,19,17.60
2012,09,18,10,20,17.60
2012,09,18,10,21,17.70
2012,09,18,10,22,17.70
2012,09,18,10,23,17.70
2012,09,18,10,24,17.80
2012,09,18,10,25,17.90
2012,09,18,10,26,17.90
2012,09,18,10,27,17.90
2012,09,18,10,28,17.90
2012,09,18,10,29,17.90
2012,09,18,10,30,18.10
2012,09,18,10,31,18.10
2012,09,18,10,32,18.20
2012,09,18,10,33,18.30
2012,09,18,10,34,18.40
2012,09,18,10,35,18.40
2012,09,18,10,36,18.50
2012,09,18,10,37,18.60
2012,09,18,10,38,18.60
2012,09,18,10,39,18.70
2012,09,18,10,40,18.70
2012,09,18,10,41,18.70
2012,09,18,10,42,18.60
2012,09,18,10,43,18.50
2012,09,18,10,44,18.40
2012,09,18,10,45,18.30
2012,09,18,10,46,18.20
2012,09,18,10,47,18.10
2012,09,18,10,48,18.10
2012,09,18,10,49,18.10
2012,09,18,10,50,18.00
2012,09,18,10,51,17.90
2012,09,18,10,52,17.90
2012,09,18,10,53,17.90
2012,09,18,10,54,17.90
2012,09,18,10,55,18.10
2012,09,18,10,56,18.20
2012,09,18,10,57,18.20
2012,09,18,10,58,18.30
2012,09,18,10,59,18.40
2012,09,18,11,00,18.60
2012,09,18,11,01,18.70
2012,09,18,11,02,18.70
2012,09,18,11,03,18.80
2012,09,18,11,04,18.90
2012,09,18,11,05,18.90
2012,09,18,11,06,18.90
2012,09,18,11,07,18.90
2012,09,18,11,08,18.90
2012,09,18,11,09,18.90
2012,09,18,11,10,18.80
2012,09,18,11,11,18.80
2012,09,18,11,12,18.90
2012,09,18,11,13,18.90
2012,09,18,11,14,18.90
2012,09,18,11,15,18.90
2012,09,18,11,16,18.90
2012,09,18,11,17,19.10
2012,09,18,11,18,19.10
2012,09,18,11,19,19.30
2012,09,18,11,20,19.40
2012,09,18,11,21,19.40
2012,09,18,11,22,19.40
2012,09,18,11,23,19.40
2012,09,18,11,24,19.40
2012,09,18,11,25,19.40
2012,09,18,11,26,19.30
2012,09,18,11,27,19.20
2012,09,18,11,28,19.10
2012,09,18,11,29,19.10
2012,09,18,11,30,19.10
2012,09,18,11,31,19.10
2012,09,18,11,32,19.20
2012,09,18,11,33,19.20
2012,09,18,11,34,19.20
2012,09,18,11,35,19.30
2012,09,18,11,36,19.30
2012,09,18,11,37,19.40
2012,09,18,11,38,19.40
2012,09,18,11,39,19.40
2012,09,18,11,40,19.40
2012,09,18,11,41,19.40
2012,09,18,11,42,19.40
2012,09,18,11,43,19.40
2012,09,18,11,44,19.40
2012,09,18,11,45,19.40
2012,09,18,11,46,19.40
2012,09,18,11,47,19.40
2012,09,18,11,48,19.40
2012,09,18,11,49,19.40
2012,09,18,11,50,19.40
2012,09,18,11,51,19.40
2012,09,18,11,52,19.40
2012,09,18,11,53,19.50
2012,09,18,11,54,19.50
2012,09,18,11,55,19.50
2012,09,18,11,56,19.60
2012,09,18,11,57,19.60
2012,09,18,11,58,19.70
2012,09,18,11,59,19.70
2012,09,18,12,00,19.70
2012,09,18,12,01,19.70
2012,09,18,12,02,19.60
2012,09,18,12,03,19.60
2012,09,18,12,04,19.60
2012,09,18,12,05,19.60
2012,09,18,12,06,19.60
2012,09,18,12,07,19.70
2012,09,18,12,08,19.80
2012,09,18,12,09,19.90
2012,09,18,12,10,19.90
2012,09,18,12,11,20.00
2012,09,18,12,12,20.10
2012,09,18,12,13,20.10
2012,09,18,12,14,20.00
2012,09,18,12,15,19.90
2012,09,18,12,16,19.90
2012,09,18,12,17,20.00
2012,09,18,12,18,20.10
2012,09,18,12,19,20.10
2012,09,18,12,20,20.10
2012,09,18,12,21,20.10
2012,09,18,12,22,20.10
2012,09,18,12,23,20.20
2012,09,18,12,24,20.20
2012,09,18,12,25,20.20
2012,09,18,12,26,20.20
2012,09,18,12,27,20.20
2012,09,18,12,28,20.10
2012,09,18,12,29,20.10
2012,09,18,12,30,20.10
2012,09,18,12,31,20.00
2012,09,18,12,32,20.10
2012,09,18,12,33,20.10
2012,09,18,12,34,20.20
2012,09,18,12,35,20.20
2012,09,18,12,36,20.30
2012,09,18,12,37,20.30
2012,09,18,12,38,20.40
2012,09,18,12,39,20.40
2012,09,18,12,40,20.50
2012,09,18,12,41,20.40
2012,09,18,12,42,20.40
2012,09,18,12,43,20.30
2012,09,18,12,44,20.20
2012,09,18,12,45,20.20
2012,09,18,12,46,20.20
2012,09,18,12,47,20.20
2012,09,18,12,48,20.20
2012,09,18,12,49,20.20
2012,09,18,12,50,20.20
2012,09,18,12,51,20.20
2012,09,18,12,52,20.30
2012,09,18,12,53,20.30
2012,09,18,12,54,20.40
2012,09,18,12,55,20.50
2012,09,18,12,56,20.60
2012,09,18,12,57,20.70
2012,09,18,12,58,20.70
2012,09,18,12,59,20.70
2012,09,18,13,00,20.70
2012,09,18,13,01,20.70
2012,09,18,13,02,20.60
2012,09,18,13,03,20.60
2012,09,18,13,04,20.50
2012,09,18,13,05,20.60
2012,09,18,13,06,20.50
2012,09,18,13,07,20.50
2012,09,18,13,08,20.40
2012,09,18,13,09,20.40
2012,09,18,13,10,20.30
2012,09,18,13,11,20.30
2012,09,18,13,12,20.30
2012,09,18,13,13,20.30
2012,09,18,13,14,20.40
2012,09,18,13,15,20.40
2012,09,18,13,16,20.50
2012,09,18,13,17,20.60
2012,09,18,13,18,20.70
2012,09,18,13,19,20.80
2012,09,18,13,20,20.90
2012,09,18,13,21,21.00
2012,09,18,13,22,21.00
2012,09,18,13,23,21.00
2012,09,18,13,24,21.10
2012,09,18,13,25,21.10
2012,09,18,13,26,21.10
2012,09,18,13,27,21.20
2012,09,18,13,28,21.20
2012,09,18,13,29,21.20
2012,09,18,13,30,21.20
2012,09,18,13,31,21.20
2012,09,18,13,32,21.20
2012,09,18,13,33,21.30
2012,09,18,13,34,21.30
2012,09,18,13,35,21.30
2012,09,18,13,36,21.20
2012,09,18,13,37,21.20
2012,09,18,13,38,21.20
2012,09,18,13,39,21.10
2012,09,18,13,40,21.10
2012,09,18,13,41,21.10
2012,09,18,13,42,21.00
2012,09,18,13,43,21.10
2012,09,18,13,44,21.10
2012,09,18,13,45,21.10
2012,09,18,13,46,21.10
2012,09,18,13,47,21.10
2012,09,18,13,48,21.20
2012,09,18,13,49,21.20
2012,09,18,13,50,21.20
2012,09,18,13,51,21.30
2012,09,18,13,52,21.20
2012,09,18,13,53,21.20
2012,09,18,13,54,21.20
2012,09,18,13,55,21.30
2012,09,18,13,56,21.30
2012,09,18,13,57,21.30
2012,09,18,13,58,21.30
2012,09,18,13,59,21.30
2012,09,18,14,00,21.40
2012,09,18,14,01,21.60
2012,09,18,14,02,21.70
2012,09,18,14,03,21.80
2012,09,18,14,04,21.90
2012,09,18,14,05,22.00
2012,09,18,14,06,22.10
2012,09,18,14,07,22.10
2012,09,18,14,08,22.20
2012,09,18,14,09,22.20
2012,09,18,14,10,22.00
2012,09,18,14,11,22.00
2012,09,18,14,12,21.90
2012,09,18,14,13,21.80
2012,09,18,14,14,21.80
2012,09,18,14,15,21.90
2012,09,18,14,16,21.90
2012,09,18,14,17,21.80
2012,09,18,14,18,21.80
2012,09,18,14,19,21.70
2012,09,18,14,20,21.60
2012,09,18,14,21,21.60
2012,09,18,14,22,21.70
2012,09,18,14,23,21.70
2012,09,18,14,24,21.80
2012,09,18,14,25,21.80
2012,09,18,14,26,21.90
2012,09,18,14,27,21.90
2012,09,18,14,28,21.90
2012,09,18,14,29,21.80
2012,09,18,14,30,21.80
2012,09,18,14,31,21.80
2012,09,18,14,32,21.80
2012,09,18,14,33,21.80
2012,09,18,14,34,21.80
2012,09,18,14,35,21.80
2012,09,18,14,36,21.90
2012,09,18,14,37,22.00
2012,09,18,14,38,22.00
2012,09,18,14,39,22.00
2012,09,18,14,40,22.10
2012,09,18,14,41,22.10
2012,09,18,14,42,22.10
2012,09,18,14,43,22.20
2012,09,18,14,44,22.20
2012,09,18,14,45,22.30
2012,09,18,14,46,22.30
2012,09,18,14,47,22.30
2012,09,18,14,48,22.40
2012,09,18,14,49,22.40
2012,09,18,14,50,22.50
2012,09,18,14,51,22.50
2012,09,18,14,52,22.50
2012,09,18,14,53,22.50
2012,09,18,14,54,22.50
2012,09,18,14,55,22.40
2012,09,18,14,56,22.50
2012,09,18,14,57,22.60
2012,09,18,14,58,22.60
2012,09,18,14,59,22.70
2012,09,18,15,00,22.70
2012,09,18,15,01,22.70
2012,09,18,15,02,22.70
2012,09,18,15,03,22.80
2012,09,18,15,04,22.80
2012,09,18,15,05,22.80
2012,09,18,15,06,22.80
2012,09,18,15,07,22.90
2012,09,18,15,08,22.90
2012,09,18,15,09,22.80
2012,09,18,15,10,22.80
2012,09,18,15,11,22.80
2012,09,18,15,12,22.70
2012,09,18,15,13,22.70
2012,09,18,15,14,22.60
2012,09,18,15,15,22.60
2012,09,18,15,16,22.60
2012,09,18,15,17,22.70
2012,09,18,15,18,22.80
2012,09,18,15,19,22.80
2012,09,18,15,20,22.90
2012,09,18,15,21,22.90
2012,09,18,15,22,22.90
2012,09,18,15,23,22.90
2012,09,18,15,24,22.90
2012,09,18,15,25,22.90
2012,09,18,15,26,22.90
2012,09,18,15,27,22.90
2012,09,18,15,28,22.90
2012,09,18,15,29,22.90
2012,09,18,15,30,22.90
2012,09,18,15,31,22.90
2012,09,18,15,32,22.90
2012,09,18,15,33,22.90
2012,09,18,15,34,22.90
2012,09,18,15,35,22.90
2012,09,18,15,36,22.90
2012,09,18,15,37,22.90
2012,09,18,15,38,23.00
2012,09,18,15,39,23.10
2012,09,18,15,40,23.20
2012,09,18,15,41,23.20
2012,09,18,15,42,23.30
2012,09,18,15,43,23.30
2012,09,18,15,44,23.30
2012,09,18,15,45,23.30
2012,09,18,15,46,23.40
2012,09,18,15,47,23.30
2012,09,18,15,48,23.30
2012,09,18,15,49,23.30
2012,09,18,15,50,23.30
2012,09,18,15,51,23.40
2012,09,18,15,52,23.50
2012,09,18,15,53,23.60
2012,09,18,15,54,23.60
2012,09,18,15,55,23.70
2012,09,18,15,56,23.60
2012,09,18,15,57,23.50
2012,09,18,15,58,23.40
2012,09,18,15,59,23.40
2012,09,18,16,00,23.30
2012,09,18,16,01,23.20
2012,09,18,16,02,23.20
2012,09,18,16,03,23.10
2012,09,18,16,04,23.00
2012,09,18,16,05,22.90
2012,09,18,16,06,22.90
2012,09,18,16,07,22.90
2012,09,18,16,08,22.90
2012,09,18,16,09,22.80
2012,09,18,16,10,22.80
2012,09,18,16,11,22.90
2012,09,18,16,12,22.90
2012,09,18,16,13,22.80
2012,09,18,16,14,22.70
2012,09,18,16,15,22.60
2012,09,18,16,16,22.50
2012,09,18,16,17,22.40
2012,09,18,16,18,22.20
2012,09,18,16,19,22.20
2012,09,18,16,20,22.10
2012,09,18,16,21,22.00
2012,09,18,16,22,22.00
2012,09,18,16,23,22.00
2012,09,18,16,24,21.90
2012,09,18,16,25,21.80
2012,09,18,16,26,21.70
2012,09,18,16,27,21.60
2012,09,18,16,28,21.60
2012,09,18,16,29,21.50
2012,09,18,16,30,21.40
2012,09,18,16,31,21.30
2012,09,18,16,32,21.30
2012,09,18,16,33,21.30
2012,09,18,16,34,21.30
2012,09,18,16,35,21.40
2012,09,18,16,36,21.50
2012,09,18,16,37,21.60
2012,09,18,16,38,21.60
2012,09,18,16,39,21.70
2012,09,18,16,40,21.80
2012,09,18,16,41,21.80
2012,09,18,16,42,21.80
2012,09,18,16,43,21.90
2012,09,18,16,44,21.90
2012,09,18,16,45,22.00
2012,09,18,16,46,22.10
2012,09,18,16,47,22.10
2012,09,18,16,48,22.20
2012,09,18,16,49,22.30
2012,09,18,16,50,22.40
2012,09,18,16,51,22.60
2012,09,18,16,52,22.60
2012,09,18,16,53,22.70
2012,09,18,16,54,22.80
2012,09,18,16,55,22.80
2012,09,18,16,56,22.90
2012,09,18,16,57,22.90
2012,09,18,16,58,22.80
2012,09,18,16,59,22.80
2012,09,18,17,00,22.80
2012,09,18,17,01,22.70
2012,09,18,17,02,22.60
2012,09,18,17,03,22.50
2012,09,18,17,04,22.50
2012,09,18,17,05,22.40
2012,09,18,17,06,22.30
2012,09,18,17,07,22.20
2012,09,18,17,08,22.20
2012,09,18,17,09,22.20
2012,09,18,17,10,22.10
2012,09,18,17,11,22.10
2012,09,18,17,12,22.20
2012,09,18,17,13,22.20
2012,09,18,17,14,22.30
2012,09,18,17,15,22.30
2012,09,18,17,16,22.40
2012,09,18,17,17,22.40
2012,09,18,17,18,22.50
2012,09,18,17,19,22.60